Home   Weather   Wesel   Past weeks

Flag for Germany Past Weather in Wesel, North Rhine-Westphalia, Germany — Yesterday and Last 2 Weeks

55 °F

Partly sunny.

Feels Like: 54 °F
Forecast: 49 / 57 °F
Wind: 7 mph from Southwest

Location: Niederrhein

Current Time: Oct 27, 2016 at 4:56:18 PM

Latest Report: Oct 27, 2016 at 4:20 PM

Visibility: 6 mi

Pressure: 30.48 "Hg

Humidity: 94%

Dew Point: 54 °F

Location of WeselLocation

Past Weather in Wesel — Graph


Wesel Temperature Yesterday

Maximum temperature yesterday: 55 °F (at 3:20 PM)
Minimum temperature yesterday: 46 °F (at 5:50 AM)
Average temperature yesterday: 50 °F

High & Low Weather Summary for the Past Weeks

High66 °F (Oct 16, 2:50 PM)100% (Oct 14, 11:50 PM)30.51 "Hg (Oct 14, 11:50 PM)
Low32 °F (Oct 23, 4:50 AM)60% (Oct 16, 2:50 PM)29.65 "Hg (Oct 15, 4:50 AM)
Average49 °F92%30.03 "Hg
* Reported Oct 12 3:20 PM — Oct 27 3:20 PM, Wesel, Weather by CustomWeather, © 2016

Note: Actual official high and low records may vary slightly from our data, if they occured in-between our weather recording intervals... More about our weather records


Wesel Weather History for the Previous 24 Hours

Scroll right to see more
Time TempWeatherWind HumidityBarometerVisibility
3:20 PM
Thu, Oct 27
55 °FPartly sunny.10 mph94%30.48 "HgN/A
2:50 PM55 °FPartly sunny.8 mph100%30.48 "Hg5 mi
2:20 PM54 °FFog.8 mph100%30.48 "Hg3 mi
1:50 PM54 °FFog.9 mph100%30.48 "Hg2 mi
1:20 PM52 °FFog.9 mph100%30.48 "Hg2 mi
12:50 PM52 °FFog.8 mph100%30.51 "Hg2 mi
12:20 PM52 °FFog.7 mph100%30.48 "Hg2 mi
11:50 AM52 °FFog.8 mph100%30.48 "Hg1 mi
11:20 AM50 °FFog.10 mph100%30.48 "Hg1 mi
10:50 AM50 °FFog.10 mph100%30.48 "Hg1 mi
10:20 AM50 °FFog.8 mph100%30.48 "Hg1 mi
9:50 AM50 °FFog.7 mph100%30.48 "Hg1 mi
9:20 AM50 °FFog.7 mph100%30.48 "Hg1 mi
8:50 AM50 °FFog.6 mph100%30.45 "Hg2 mi
8:20 AM50 °FFog.6 mph100%30.45 "Hg2 mi
7:50 AM50 °FFog.6 mph100%30.45 "Hg2 mi
7:20 AM50 °FFog.6 mph100%30.45 "Hg2 mi
6:50 AM50 °FFog.6 mph100%30.45 "Hg2 mi
6:20 AM50 °FFog.7 mph100%30.42 "Hg2 mi
5:50 AM50 °FFog.6 mph100%30.42 "Hg2 mi
5:20 AM50 °FFog.7 mph100%30.42 "Hg3 mi
4:50 AM48 °FFog.7 mph100%30.42 "Hg3 mi
11:50 PM
Wed, Oct 26
48 °FFog.6 mph100%30.42 "Hg2 mi
11:20 PM48 °FFog.5 mph100%30.42 "Hg2 mi
10:50 PM46 °FFog.3 mph100%30.42 "Hg2 mi
10:20 PM46 °FFog.5 mph100%30.42 "Hg3 mi
9:50 PM46 °FFog.5 mph100%30.42 "Hg2 mi
9:20 PM46 °FFog.3 mph100%30.42 "Hg3 mi
8:50 PM48 °FFog.1 mph100%30.42 "Hg3 mi
8:20 PM48 °FFog.3 mph100%30.39 "Hg3 mi
7:50 PM50 °FFog.2 mph100%30.39 "Hg3 mi
7:20 PM50 °FClear.3 mph100%30.39 "Hg4 mi
6:50 PM52 °FScattered clouds.3 mph88%30.39 "Hg4 mi
6:20 PM52 °FBroken clouds.3 mph88%30.39 "Hg4 mi
5:50 PM54 °FPartly sunny.2 mph88%30.39 "Hg4 mi
5:20 PM54 °FClear.3 mph82%30.39 "Hg4 mi
4:50 PM54 °FScattered clouds.5 mph82%30.39 "Hg5 mi
4:20 PM54 °FScattered clouds.5 mph77%30.39 "Hg5 mi
Weather by CustomWeather, © 2016

See weather overviewHow to use our weather pages